STARLINK-32365, 61625

Orbit data source: Space-Track

STARLINK-32365, 61625 is a payload satellite owned by SpaceX/Seattle (US) in LEO that was launched on Wed, 23 Oct 2024 UTC via an FALCON 9 launch vehicle from the Air Force Eastern Test Range (AFETR). Payload-class satellites include a variety of spacecraft equipped with specific instruments for various scientific and technological missions. These include communications satellites like Starlink; space stations such as the ISS; scientific satellites like the Hubble; Earth observation satellites from companies like Planet Labs, Umbra, and HawkEye 360; GPS; miniature CubeSats for education and research; and military/defense satellites.

Loading next visibility...
Identifier
61625, 2024-191E
Orbit
LEO
Last TLE update
16 hours ago
Origin
Manufacturer
SpaceX/Seattle
Mission
Operational Commercial Communications
Bus & Motor
STARLINK V2M, Unknown motor
Mass
730 kg wet, ~700 kg dry
Launch date (UTC)
2024-10-23 (8 months ago)
Launch vehicle
FALCON 9
Launch site
Air Force Eastern Test Range (AFETR)
Object type
Payload
Rocket body
Debris
Shape & HBR
Box + 2 Pan, 29 m
Radar Cross Section
36.964 m², Large (>1 m²)

Expand to show TLE details & history

TLE from 16 hours ago
0 STARLINK-32365
1 61625U 24191E   25188.12835089  .00001618  00000-0  68304-4 0  9998
2 61625  42.9993 101.0722 0001119 277.7193  82.3532 15.27575475 39989
Epoch: 2025-07-07T03:04Z
TLE epoch observation values (Epoch: 2025-07-07T03:04:49.516Z)
Latitude
-0°
Longitude
129.52374°
Altitude
482.736 km
Speed
7.626 km/s
True Right ascension
06h 44m 17s
True Declination
0° 00' 00"
Sunlit
Object was in daylight at epoch
Visualization orbit readout
Latitude
37.35176°
Longitude
-108.77549°
Altitude
485.714 km
Speed
7.627 km/s
Apparent Right ascension
16h 57m 34s
Apparent Declination
0° 28' 50"
Sunlit
Object is in daylight
Visualization observer readout
Local Sidereal Time
07:20:40
Azimuth
47.965° ENE
Elevation
-38.087°
Doppler factor
1
Orbital elements
Apogee altitude
485.776 km
Perigee altitude
484.24 km
Semi-major axis
6,863.145 km
Eccentricity
0.00011
Inclination
42.9993°
RAAN
101.0722°
Arg. of periapsis
277.7193°
True anomaly
Unknown
Mean anomaly
82.3532°
Eccentric anomaly
Unknown
Mean motion
3.81732 °/min
Orbital period
94.31 mins
BSTAR
0.000068304
Loading maneuver chart data...
Loading SW <> Apogee altitude chart data...
Loading historical data...
Loading historical data...
Loading historical data...
Loading historical data...
Loading historical data...
Loading historical data...
Loading historical data...

STARLINK-32365 Visibility forecast

Observer location: undefined°, undefined°

Span
Click to sort rows by Start time (UTC) header in descending order
Start Az.
Max El. time (UTC)
Max El. Az.
Max El.
End time (UTC)
End Az.
4 mins2025-07-07 20:31:06.661Z179.326° S2025-07-07 20:33:06.661Z146.799° SSE14.865°2025-07-07 20:35:06.661Z111.49° ESE
5 mins2025-07-07 22:10:06.661Z233.05° WSW2025-07-07 22:12:06.661Z125.309° SE42.193°2025-07-07 22:15:06.661Z75.276° E
5 mins2025-07-07 23:49:06.661Z288.453° WNW2025-07-07 23:51:06.661Z10.109° NNE38.501°2025-07-07 23:54:06.661Z71.519° E
5 mins2025-07-08 01:28:06.661Z295.547° NW2025-07-08 01:30:06.661Z13.903° NNE42.622°2025-07-08 01:33:06.661Z94.504° ESE
5 mins2025-07-08 03:07:06.661Z262.891° W2025-07-08 03:09:06.661Z202.495° SSW31.348°2025-07-08 03:12:06.661Z142.547° SSE
|